Location: Newark
(40.2094°N, 3.5722°W)
Time: 19:44:46
(UTC+00:00)

ISS - Visible Passes

Search period start: 16 October 2019 00:00
Search period end: 26 October 2019 00:00
Orbit: 411 x 421 km, 51.6° (Epoch: 16 October)

Date Brightness Start Highest point End Pass type
(mag) Time Alt. Az. Time Alt. Az. Time Alt. Az.
23 Oct -1.1 05:34:12 10° S 05:36:46 21° SE 05:39:22 10° E visible
24 Oct -0.6 04:47:08 10° SSE 04:48:24 12° SE 04:49:40 10° ESE visible
25 Oct -3.3 05:32:50 10° SW 05:36:09 60° SE 05:39:28 10° ENE visible
